| time (UTC) | temp F | wind direction | speed knots | gust knots | rain 1hr in | rain 24hr in | rain mn in | humidity % | barometer mb |
| 20260503021341 | 61 | 277 | 3.5 | 7.8 | 0.00 | 0.00 | 0.00 | 85 | 1010.0 |
| 20260503020841 | 61 | 294 | 6.1 | 7.8 | 0.00 | 0.00 | 0.00 | 85 | 1009.8 |
| 20260503020343 | 62 | 291 | 4.3 | 7.8 | 0.00 | 0.00 | 0.00 | 84 | 1010.0 |
| 20260503015842 | 62 | 300 | 3.5 | 11.3 | 0.00 | 0.00 | 0.00 | 84 | 1009.9 |
| 20260503015340 | 62 | 340 | 7.0 | 11.3 | 0.00 | 0.00 | 0.00 | 83 | 1009.9 |
| 20260503014841 | 62 | 289 | 3.5 | 7.8 | 0.00 | 0.00 | 0.00 | 83 | 1009.9 |
| 20260503013841 | 62 | 311 | 3.5 | 7.8 | 0.00 | 0.00 | 0.00 | 83 | 1009.8 |
| 20260503013340 | 62 | 317 | 3.5 | 7.8 | 0.00 | 0.00 | 0.00 | 83 | 1009.7 |
| 20260503012840 | 63 | 339 | 4.3 | 7.8 | 0.00 | 0.00 | 0.00 | 83 | 1009.7 |
| 20260503012343 | 63 | 260 | 2.6 | 7.8 | 0.00 | 0.00 | 0.00 | 82 | 1009.9 |
| 20260503011842 | 63 | 286 | 1.7 | 8.7 | 0.00 | 0.00 | 0.00 | 81 | 1009.8 |
| 20260503011340 | 63 | 267 | 5.2 | 8.7 | 0.00 | 0.00 | 0.00 | 81 | 1009.8 |
| 20260503010840 | 63 | 304 | 3.5 | 7.8 | 0.00 | 0.00 | 0.00 | 81 | 1009.7 |
| 20260503010341 | 63 | 296 | 3.5 | 7.8 | 0.00 | 0.00 | 0.00 | 81 | 1009.5 |
| 20260503005841 | 63 | 329 | 3.5 | 7.8 | 0.00 | 0.00 | 0.00 | 80 | 1009.6 |
| 20260503005339 | 64 | 278 | 1.7 | 7.8 | 0.00 | 0.00 | 0.00 | 81 | 1009.7 |
| 20260503005100 | 64 | 259 | 3.5 | 7.8 | 0.00 | 0.00 | 0.00 | 80 | 1009.8 |
| 20260503004340 | 64 | 258 | 4.3 | 7.8 | 0.00 | 0.00 | 0.00 | 80 | 1009.7 |
| 20260503003841 | 64 | 271 | 4.3 | 8.7 | 0.00 | 0.00 | 0.00 | 79 | 1009.8 |
| 20260503003339 | 64 | 291 | 3.5 | 8.7 | 0.00 | 0.00 | 0.00 | 80 | 1009.8 |
| 20260503003058 | 65 | 250 | 0.9 | 11.3 | 0.00 | 0.00 | 0.00 | 79 | 1009.9 |
| 20260503002338 | 65 | 3 | 1.7 | 11.3 | 0.00 | 0.00 | 0.00 | 78 | 1009.7 |
| 20260503002109 | 65 | 283 | 1.7 | 10.4 | 0.00 | 0.00 | 0.00 | 78 | 1009.7 |
| 20260503001604 | 65 | 270 | 1.7 | 10.4 | 0.00 | 0.00 | 0.00 | 78 | 1009.6 |
| 20260503000838 | 65 | 260 | 5.2 | 10.4 | 0.00 | 0.00 | 0.00 | 77 | 1009.8 |
| 20260503000604 | 65 | 252 | 3.5 | 8.7 | 0.00 | 0.00 | 0.00 | 77 | 1009.8 |
| 20260503000105 | 65 | 352 | 5.2 | 8.7 | 0.00 | 0.00 | 0.00 | 77 | 1009.7 |
| 20260502235338 | 65 | 267 | 5.2 | 10.4 | 0.00 | 0.00 | 0.00 | 76 | 1009.7 |
| 20260502235108 | 66 | 257 | 2.6 | 10.4 | 0.00 | 0.00 | 0.00 | 76 | 1009.7 |
| 20260502234338 | 66 | 270 | 3.5 | 10.4 | 0.00 | 0.00 | 0.00 | 75 | 1009.8 |
| 20260502233840 | 66 | 271 | 3.5 | 11.3 | 0.00 | 0.00 | 0.00 | 76 | 1009.8 |
| 20260502233339 | 66 | 321 | 7.0 | 11.3 | 0.00 | 0.00 | 0.00 | 77 | 1009.9 |
| 20260502232837 | 66 | 261 | 7.0 | 12.2 | 0.00 | 0.00 | 0.00 | 76 | 1009.9 |
| 20260502232337 | 66 | 277 | 4.3 | 12.2 | 0.00 | 0.00 | 0.00 | 76 | 1009.8 |
| 20260502231838 | 66 | 4 | 7.0 | 11.3 | 0.00 | 0.00 | 0.00 | 76 | 1009.8 |
| 20260502231338 | 66 | 263 | 2.6 | 11.3 | 0.00 | 0.00 | 0.00 | 75 | 1010.0 |
| 20260502230837 | 66 | 342 | 2.6 | 14.8 | 0.00 | 0.00 | 0.00 | 77 | 1009.8 |
| 20260502230337 | 66 | 262 | 3.5 | 14.8 | 0.00 | 0.00 | 0.00 | 78 | 1009.8 |
| 20260502225339 | 66 | 348 | 7.8 | 13.0 | 0.00 | 0.00 | 0.00 | 79 | 1009.8 |
| 20260502224837 | 66 | 311 | 4.3 | 11.3 | 0.00 | 0.00 | 0.00 | 78 | 1010.0 |
| 20260502224555 | 66 | 296 | 5.2 | 17.4 | 0.00 | 0.00 | 0.00 | 76 | 1010.0 |
| 20260502223838 | 66 | 336 | 9.6 | 17.4 | 0.00 | 0.00 | 0.00 | 78 | 1010.1 |
| 20260502223337 | 66 | 263 | 3.5 | 13.0 | 0.00 | 0.00 | 0.00 | 79 | 1010.3 |
| 20260502222836 | 66 | 314 | 4.3 | 11.3 | 0.00 | 0.00 | 0.00 | 77 | 1010.4 |
| 20260502222336 | 67 | 260 | 7.8 | 11.3 | 0.00 | 0.00 | 0.00 | 77 | 1010.5 |
| 20260502221838 | 67 | 351 | 5.2 | 11.3 | 0.00 | 0.00 | 0.00 | 77 | 1010.6 |
| 20260502221337 | 67 | 326 | 4.3 | 11.3 | 0.00 | 0.00 | 0.00 | 77 | 1010.7 |
| 20260502220835 | 67 | 331 | 5.2 | 11.3 | 0.00 | 0.00 | 0.00 | 77 | 1010.8 |
| 20260502220335 | 67 | 311 | 5.2 | 11.3 | 0.00 | 0.00 | 0.00 | 77 | 1010.9 |
| 20260502215836 | 67 | 330 | 5.2 | 11.3 | 0.00 | 0.00 | 0.00 | 76 | 1010.9 |
| 20260502215336 | 67 | 264 | 0.9 | 10.4 | 0.00 | 0.00 | 0.00 | 75 | 1010.9 |
| 20260502214836 | 67 | 281 | 7.0 | 10.4 | 0.00 | 0.00 | 0.00 | 75 | 1010.9 |
| 20260502214335 | 67 | 269 | 5.2 | 10.4 | 0.00 | 0.00 | 0.00 | 75 | 1011.0 |
| 20260502213836 | 67 | 320 | 2.6 | 10.4 | 0.00 | 0.00 | 0.00 | 76 | 1011.0 |
| 20260502213337 | 67 | 353 | 5.2 | 10.4 | 0.00 | 0.00 | 0.00 | 77 | 1011.2 |
| 20260502212836 | 67 | 284 | 4.3 | 12.2 | 0.00 | 0.00 | 0.00 | 77 | 1011.2 |
| 20260502212334 | 67 | 259 | 3.5 | 12.2 | 0.00 | 0.00 | 0.00 | 76 | 1011.4 |
| 20260502211836 | 67 | 252 | 7.0 | 10.4 | 0.00 | 0.00 | 0.00 | 75 | 1011.4 |
| 20260502211336 | 66 | 340 | 6.1 | 8.7 | 0.00 | 0.00 | 0.00 | 77 | 1011.4 |
| 20260502211058 | 66 | 286 | 3.5 | 12.2 | 0.00 | 0.00 | 0.00 | 77 | 1011.4 |
| 20260502210336 | 66 | 276 | 4.3 | 12.2 | 0.00 | 0.00 | 0.00 | 79 | 1011.3 |
| 20260502205834 | 66 | 267 | 7.0 | 12.2 | 0.00 | 0.00 | 0.00 | 76 | 1011.5 |
| 20260502205554 | 66 | 289 | 5.2 | 12.2 | 0.00 | 0.00 | 0.00 | 77 | 1011.3 |
| 20260502204835 | 66 | 310 | 4.3 | 13.0 | 0.00 | 0.00 | 0.00 | 78 | 1011.1 |
| 20260502204335 | 66 | 243 | 4.3 | 13.0 | 0.00 | 0.00 | 0.00 | 77 | 1011.3 |
| 20260502203835 | 67 | 244 | 3.5 | 11.3 | 0.00 | 0.00 | 0.00 | 78 | 1011.3 |
| 20260502203336 | 67 | 299 | 3.5 | 12.2 | 0.00 | 0.00 | 0.00 | 79 | 1011.3 |
| 20260502202836 | 67 | 247 | 7.0 | 14.8 | 0.00 | 0.00 | 0.00 | 79 | 1011.3 |
| 20260502202334 | 67 | 332 | 3.5 | 14.8 | 0.00 | 0.00 | 0.00 | 79 | 1011.4 |
| 20260502202056 | 67 | 265 | 5.2 | 12.2 | 0.00 | 0.00 | 0.00 | 77 | 1011.4 |
| 20260502201335 | 66 | 282 | 6.1 | 12.2 | 0.00 | 0.00 | 0.00 | 75 | 1011.2 |
| 20260502200835 | 66 | 255 | 7.0 | 8.7 | 0.00 | 0.00 | 0.00 | 76 | 1011.2 |
| 20260502200333 | 66 | 261 | 5.2 | 12.2 | 0.00 | 0.00 | 0.00 | 77 | 1011.1 |
| 20260502195833 | 66 | 238 | 3.5 | 12.2 | 0.00 | 0.00 | 0.00 | 79 | 1011.2 |
| 20260502195334 | 66 | 278 | 6.1 | 7.8 | 0.00 | 0.00 | 0.00 | 78 | 1011.5 |
| 20260502194835 | 66 | 359 | 4.3 | 11.3 | 0.00 | 0.00 | 0.00 | 79 | 1011.5 |
| 20260502194333 | 66 | 347 | 6.1 | 11.3 | 0.00 | 0.00 | 0.00 | 81 | 1011.8 |
| 20260502193833 | 66 | 299 | 5.2 | 11.3 | 0.00 | 0.00 | 0.00 | 78 | 1011.7 |
| 20260502193334 | 66 | 356 | 7.0 | 12.2 | 0.00 | 0.00 | 0.00 | 80 | 1011.7 |
| 20260502192834 | 66 | 352 | 7.0 | 12.2 | 0.00 | 0.00 | 0.00 | 80 | 1011.8 |
| 20260502192332 | 66 | 283 | 5.2 | 10.4 | 0.00 | 0.00 | 0.00 | 78 | 1011.8 |
| 20260502191832 | 66 | 295 | 5.2 | 10.4 | 0.00 | 0.00 | 0.00 | 79 | 1011.8 |
| 20260502191333 | 66 | 305 | 5.2 | 10.4 | 0.00 | 0.00 | 0.00 | 80 | 1011.9 |
| 20260502190834 | 66 | 267 | 3.5 | 11.3 | 0.00 | 0.00 | 0.00 | 80 | 1012.0 |
| 20260502190331 | 65 | 350 | 6.1 | 11.3 | 0.00 | 0.00 | 0.00 | 80 | 1012.0 |
| 20260502185831 | 65 | 330 | 6.1 | 10.4 | 0.00 | 0.00 | 0.00 | 80 | 1012.1 |
| 20260502185333 | 65 | 349 | 7.0 | 10.4 | 0.00 | 0.00 | 0.00 | 82 | 1012.2 |
| 20260502184833 | 65 | 329 | 5.2 | 8.7 | 0.00 | 0.00 | 0.00 | 81 | 1012.4 |
| 20260502184331 | 65 | 322 | 4.3 | 7.8 | 0.00 | 0.00 | 0.00 | 81 | 1012.5 |
| 20260502183831 | 65 | 280 | 0.9 | 7.0 | 0.00 | 0.00 | 0.00 | 80 | 1012.4 |
| 20260502183332 | 65 | 285 | 1.7 | 7.8 | 0.00 | 0.00 | 0.00 | 82 | 1012.4 |
| 20260502183058 | 65 | 253 | 3.5 | 7.8 | 0.00 | 0.00 | 0.00 | 81 | 1012.5 |
| 20260502182331 | 65 | 299 | 0.9 | 7.0 | 0.00 | 0.00 | 0.00 | 82 | 1012.6 |
| 20260502181831 | 65 | 311 | 3.5 | 7.0 | 0.00 | 0.00 | 0.00 | 81 | 1012.7 |
| 20260502181331 | 65 | 301 | 3.5 | 6.1 | 0.00 | 0.00 | 0.00 | 80 | 1012.8 |
| 20260502180831 | 64 | 282 | 1.7 | 7.8 | 0.00 | 0.00 | 0.00 | 80 | 1012.8 |
| 20260502180331 | 64 | 2 | 4.3 | 7.8 | 0.00 | 0.00 | 0.00 | 80 | 1012.9 |
| 20260502170331 | 62 | 274 | 1.7 | 7.0 | 0.00 | 0.00 | 0.00 | 87 | 1013.2 |
| 20260502164330 | 62 | 274 | 0.0 | 6.1 | 0.00 | 0.00 | 0.00 | 84 | 1013.4 |
| 20260502163831 | 62 | 21 | 4.3 | 7.0 | 0.00 | 0.00 | 0.00 | 85 | 1013.5 |
| 20260502163328 | 62 | 348 | 4.3 | 8.7 | 0.00 | 0.00 | 0.00 | 85 | 1013.4 |
| 20260502162829 | 62 | 349 | 6.1 | 8.7 | 0.00 | 0.00 | 0.00 | 85 | 1013.4 |
| 20260502162330 | 62 | 25 | 5.2 | 8.7 | 0.00 | 0.00 | 0.00 | 86 | 1013.2 |
| 20260502161830 | 62 | 2 | 7.8 | 8.7 | 0.00 | 0.00 | 0.00 | 86 | 1013.2 |
| 20260502161329 | 62 | 34 | 4.3 | 7.0 | 0.00 | 0.00 | 0.00 | 86 | 1013.3 |
| 20260502160830 | 61 | 25 | 0.9 | 7.8 | 0.00 | 0.00 | 0.00 | 86 | 1013.3 |
| 20260502160330 | 61 | 12 | 4.3 | 7.8 | 0.00 | 0.00 | 0.00 | 86 | 1013.3 |
| 20260502152328 | 61 | 331 | 2.6 | 6.1 | 0.00 | 0.00 | 0.00 | 87 | 1013.2 |
| 20260502151828 | 61 | 49 | 1.7 | 6.1 | 0.00 | 0.00 | 0.00 | 87 | 1013.2 |
| 20260502151327 | 61 | 347 | 2.6 | 6.1 | 0.00 | 0.00 | 0.00 | 87 | 1013.1 |
| 20260502150827 | 61 | 354 | 0.9 | 6.1 | 0.00 | 0.00 | 0.00 | 88 | 1013.1 |
| 20260502150328 | 61 | 343 | 4.3 | 7.0 | 0.00 | 0.00 | 0.00 | 88 | 1013.0 |
| 20260502130554 | 60 | 312 | 2.6 | 4.3 | 0.00 | 0.00 | 0.00 | 89 | 1012.3 |
| 20260502122823 | 60 | 267 | 1.7 | 2.6 | 0.00 | 0.00 | 0.00 | 88 | 1012.2 |
| 20260502122324 | 60 | 263 | 0.0 | 2.6 | 0.00 | 0.00 | 0.00 | 88 | 1012.2 |
| 20260502121824 | 60 | 266 | 0.0 | 0.9 | 0.00 | 0.00 | 0.00 | 88 | 1012.3 |
| 20260502121324 | 60 | 260 | 0.0 | 0.9 | 0.00 | 0.00 | 0.00 | 88 | 1012.1 |
| 20260502120824 | 60 | 252 | 0.0 | 2.6 | 0.00 | 0.00 | 0.00 | 88 | 1012.2 |
| 20260502120323 | 60 | 283 | 1.7 | 2.6 | 0.00 | 0.00 | 0.00 | 88 | 1012.1 |
| 20260502115824 | 60 | 263 | 0.0 | 2.6 | 0.00 | 0.00 | 0.00 | 88 | 1012.0 |
| 20260502115324 | 61 | 266 | 0.0 | 1.7 | 0.00 | 0.00 | 0.00 | 88 | 1012.0 |
| 20260502114824 | 61 | 249 | 0.9 | 1.7 | 0.00 | 0.00 | 0.00 | 88 | 1012.0 |
| 20260502114323 | 61 | 260 | 0.9 | 1.7 | 0.00 | 0.00 | 0.00 | 88 | 1011.9 |
| 20260502113824 | 61 | 270 | 0.0 | 2.6 | 0.00 | 0.00 | 0.00 | 88 | 1011.9 |
| 20260502113546 | 61 | 284 | 1.7 | 4.3 | 0.00 | 0.00 | 0.00 | 88 | 1011.9 |
| 20260502112822 | 61 | 271 | 1.7 | 4.3 | 0.00 | 0.00 | 0.00 | 88 | 1011.9 |
| 20260502112322 | 61 | 284 | 1.7 | 4.3 | 0.00 | 0.00 | 0.00 | 87 | 1011.8 |
| 20260502111824 | 61 | 299 | 3.5 | 4.3 | 0.00 | 0.00 | 0.00 | 87 | 1011.9 |
| 20260502111323 | 61 | 229 | 0.9 | 2.6 | 0.00 | 0.00 | 0.00 | 87 | 1011.9 |
| 20260502111043 | 61 | 225 | 1.7 | 1.7 | 0.00 | 0.00 | 0.00 | 87 | 1011.9 |
| 20260502110322 | 61 | 278 | 0.0 | 0.9 | 0.00 | 0.00 | 0.00 | 86 | 1011.9 |
| 20260502105823 | 61 | 247 | 0.0 | 1.7 | 0.00 | 0.00 | 0.00 | 86 | 1011.9 |
| 20260502105322 | 61 | 261 | 0.0 | 1.7 | 0.00 | 0.00 | 0.00 | 86 | 1011.8 |
| 20260502104821 | 61 | 250 | 0.0 | 2.6 | 0.00 | 0.00 | 0.00 | 86 | 1011.8 |
| 20260502104322 | 61 | 224 | 1.7 | 4.3 | 0.00 | 0.00 | 0.00 | 86 | 1011.9 |
| 20260502103822 | 61 | 236 | 2.6 | 4.3 | 0.00 | 0.00 | 0.00 | 85 | 1011.9 |
| 20260502103323 | 61 | 208 | 2.6 | 5.2 | 0.00 | 0.00 | 0.00 | 85 | 1011.8 |
| 20260502102821 | 61 | 229 | 1.7 | 5.2 | 0.00 | 0.00 | 0.00 | 86 | 1011.7 |
| 20260502102321 | 61 | 254 | 0.9 | 1.7 | 0.00 | 0.00 | 0.00 | 85 | 1011.8 |
| 20260502102042 | 61 | 254 | 0.0 | 4.3 | 0.00 | 0.00 | 0.00 | 85 | 1011.7 |
| 20260502101547 | 61 | 240 | 0.9 | 4.3 | 0.00 | 0.00 | 0.00 | 85 | 1011.9 |
| 20260502100820 | 61 | 251 | 3.5 | 4.3 | 0.00 | 0.00 | 0.00 | 85 | 1011.8 |
| 20260502091302 | 61 | 244 | 0.0 | 0.9 | 0.00 | 0.00 | 0.00 | 84 | 1011.8 |
| 20260502090541 | 61 | 251 | 0.0 | 1.7 | 0.00 | 0.00 | 0.00 | 84 | 1011.9 |
| 20260502071039 | 61 | 265 | 0.9 | 5.2 | 0.00 | 0.00 | 0.00 | 84 | 1012.6 |
| 20260502070539 | 61 | 318 | 2.6 | 5.2 | 0.00 | 0.00 | 0.00 | 84 | 1012.6 |
| 20260502070038 | 61 | 318 | 1.7 | 4.3 | 0.00 | 0.00 | 0.00 | 84 | 1012.5 |
| 20260502065758 | 61 | 272 | 1.7 | 4.3 | 0.00 | 0.00 | 0.00 | 84 | 1012.5 |
| 20260502065038 | 61 | 268 | 0.9 | 4.3 | 0.00 | 0.00 | 0.00 | 84 | 1012.5 |
| 20260502064538 | 61 | 295 | 0.9 | 5.2 | 0.00 | 0.00 | 0.00 | 84 | 1012.4 |
| 20260502064038 | 61 | 316 | 1.7 | 5.2 | 0.00 | 0.00 | 0.00 | 84 | 1012.4 |
| 20260502063537 | 61 | 326 | 3.5 | 4.3 | 0.00 | 0.00 | 0.00 | 84 | 1012.5 |
| 20260502063038 | 61 | 305 | 1.7 | 4.3 | 0.00 | 0.00 | 0.00 | 84 | 1012.5 |
| 20260502062538 | 61 | 2 | 0.9 | 5.2 | 0.00 | 0.00 | 0.00 | 84 | 1012.4 |
| 20260502062037 | 61 | 18 | 0.9 | 6.1 | 0.00 | 0.00 | 0.00 | 84 | 1012.4 |
| 20260502061537 | 61 | 344 | 4.3 | 6.1 | 0.00 | 0.00 | 0.00 | 84 | 1012.4 |
| 20260502061039 | 61 | 334 | 4.3 | 6.1 | 0.00 | 0.00 | 0.00 | 84 | 1012.4 |
| 20260502060537 | 61 | 341 | 4.3 | 6.1 | 0.00 | 0.00 | 0.00 | 84 | 1012.4 |
| 20260502060304 | 61 | 348 | 0.9 | 4.3 | 0.00 | 0.00 | 0.00 | 84 | 1012.5 |
| 20260502055536 | 61 | 3 | 2.6 | 4.3 | 0.00 | 0.00 | 0.00 | 84 | 1012.5 |
| 20260502055037 | 61 | 288 | 0.0 | 4.3 | 0.00 | 0.00 | 0.00 | 84 | 1012.6 |
| 20260502054538 | 61 | 264 | 0.0 | 4.3 | 0.00 | 0.00 | 0.00 | 84 | 1012.5 |
| 20260502054036 | 61 | 319 | 1.7 | 4.3 | 0.00 | 0.00 | 0.00 | 84 | 1012.6 |
| 20260502053537 | 61 | 320 | 2.6 | 5.2 | 0.00 | 0.00 | 0.00 | 84 | 1012.6 |
| 20260502053035 | 61 | 313 | 1.7 | 5.2 | 0.00 | 0.00 | 0.00 | 84 | 1012.6 |
| 20260502052537 | 61 | 326 | 3.5 | 5.2 | 0.00 | 0.00 | 0.00 | 84 | 1012.5 |
| 20260502052037 | 61 | 350 | 3.5 | 5.2 | 0.00 | 0.00 | 0.00 | 84 | 1012.5 |
| 20260502051537 | 61 | 347 | 3.5 | 5.2 | 0.00 | 0.00 | 0.00 | 84 | 1012.4 |
| 20260502051035 | 61 | 325 | 3.5 | 4.3 | 0.00 | 0.00 | 0.00 | 84 | 1012.4 |
| 20260502050536 | 61 | 275 | 0.9 | 1.7 | 0.00 | 0.00 | 0.00 | 84 | 1012.5 |
| 20260502050036 | 61 | 320 | 0.0 | 2.6 | 0.00 | 0.00 | 0.00 | 84 | 1012.6 |
| 20260502045758 | 61 | 272 | 1.7 | 4.3 | 0.00 | 0.00 | 0.00 | 84 | 1012.6 |
| 20260502045035 | 61 | 276 | 2.6 | 4.3 | 0.00 | 0.00 | 0.00 | 84 | 1012.6 |
| 20260502044536 | 61 | 272 | 2.6 | 4.3 | 0.00 | 0.00 | 0.00 | 84 | 1012.5 |
| 20260502044036 | 61 | 317 | 1.7 | 5.2 | 0.00 | 0.00 | 0.00 | 84 | 1012.5 |
| 20260502043534 | 61 | 280 | 0.0 | 6.1 | 0.00 | 0.00 | 0.00 | 84 | 1012.5 |
| 20260502043035 | 61 | 352 | 4.3 | 6.1 | 0.00 | 0.00 | 0.00 | 84 | 1012.3 |
| 20260502042536 | 61 | 347 | 4.3 | 6.1 | 0.00 | 0.00 | 0.00 | 83 | 1012.4 |
| 20260502042036 | 61 | 345 | 4.3 | 6.1 | 0.00 | 0.00 | 0.00 | 84 | 1012.2 |
| 20260502041535 | 61 | 342 | 4.3 | 5.2 | 0.00 | 0.00 | 0.00 | 83 | 1012.2 |
| 20260502041035 | 61 | 288 | 2.6 | 5.2 | 0.00 | 0.00 | 0.00 | 83 | 1012.3 |
| 20260502040755 | 61 | 298 | 3.5 | 4.3 | 0.00 | 0.00 | 0.00 | 83 | 1012.3 |
| 20260502040035 | 61 | 269 | 0.0 | 1.7 | 0.00 | 0.00 | 0.00 | 84 | 1012.2 |
| 20260502035535 | 61 | 249 | 0.0 | 1.7 | 0.00 | 0.00 | 0.00 | 85 | 1012.3 |
| 20260502035033 | 61 | 252 | 0.9 | 1.7 | 0.00 | 0.00 | 0.00 | 85 | 1012.2 |
| 20260502034535 | 61 | 269 | 0.9 | 2.6 | 0.00 | 0.00 | 0.00 | 85 | 1012.1 |
| 20260502034036 | 61 | 255 | 0.9 | 2.6 | 0.00 | 0.00 | 0.00 | 85 | 1012.1 |
| 20260502033536 | 61 | 248 | 0.9 | 1.7 | 0.00 | 0.00 | 0.00 | 85 | 1012.1 |
| 20260502033034 | 61 | 254 | 0.0 | 1.7 | 0.00 | 0.00 | 0.00 | 85 | 1012.0 |
| 20260502032536 | 61 | 261 | 0.9 | 4.3 | 0.00 | 0.00 | 0.00 | 85 | 1011.9 |
| 20260502032255 | 61 | 257 | 0.0 | 4.3 | 0.00 | 0.00 | 0.00 | 85 | 1011.9 |
| 20260502031533 | 61 | 264 | 0.9 | 2.6 | 0.00 | 0.00 | 0.00 | 86 | 1011.9 |
| 20260502031033 | 61 | 263 | 0.9 | 2.6 | 0.00 | 0.00 | 0.00 | 86 | 1011.8 |
| 20260502030758 | 61 | 259 | 0.0 | 1.7 | 0.00 | 0.00 | 0.00 | 86 | 1011.7 |
| 20260502030033 | 61 | 260 | 0.9 | 5.2 | 0.00 | 0.00 | 0.00 | 85 | 1011.7 |
| 20260502025532 | 61 | 260 | 0.9 | 5.2 | 0.00 | 0.00 | 0.00 | 85 | 1011.7 |
| 20260502025033 | 61 | 264 | 0.9 | 2.6 | 0.00 | 0.00 | 0.00 | 85 | 1011.6 |
| 20260502024533 | 61 | 292 | 2.6 | 4.3 | 0.00 | 0.00 | 0.00 | 85 | 1011.6 |
| 20260502024034 | 61 | 257 | 2.6 | 4.3 | 0.00 | 0.00 | 0.00 | 85 | 1011.5 |
| 20260502023753 | 61 | 337 | 1.7 | 5.2 | 0.00 | 0.00 | 0.00 | 85 | 1011.5 |
| 20260502023031 | 62 | 294 | 0.9 | 5.2 | 0.00 | 0.00 | 0.00 | 85 | 1011.5 |
| 20260502022531 | 62 | 264 | 2.6 | 4.3 | 0.00 | 0.00 | 0.00 | 84 | 1011.5 |
| 20260502022033 | 62 | 256 | 1.7 | 5.2 | 0.00 | 0.00 | 0.00 | 84 | 1011.5 |